Dewpoint
55 58 60 62 63 63 64 65 66 66 67 67 68 68 68 68 69 70 71 72 73 74 74 74 74 74 74 73 74 74 74 74 75 74 73 73 72 72 72 71 71 72 69 69 71 71 73 74 73 74 75 75 75 75 76 77 77 75 75 76 75 74 74
51 54 57 59 62 63 64 66 67 66 67 67 68 69 68 69 70 70 71 72 73 74 74 74 75 74 74 73 73 74 74 74 74 75 74 74 74 73 73 73 72 73 73 70 70 73 74 74 74 75 74 75 74 75 75 76 77 76 74 75 75 74 74
48 52 55 58 60 62 65 65 66 66 67 66 67 68 68 70 70 71 71 72 73 74 74 74 75 74 74 74 74 74 73 73 73 73 73 72 73 71 73 74 74 72 72 72 72 72 75 75 76 75 74 73 72 74 75 76 76 76 75 75 75 73 75
47 49 53 57 61 63 64 64 65 65 65 66 67 67 68 70 70 71 71 71 72 73 74 74 74 73 74 74 74 74 74 74 74 72 72 73 73 72 73 74 74 73 72 72 71 72 71 74 74 76 76 75 74 73 74 74 74 75 75 76 74 74 75
44 47 50 56 59 61 62 63 64 66 65 65 66 68 68 69 69 69 70 71 71 72 72 72 71 72 73 74 73 73 73 74 73 73 73 73 74 74 73 72 73 72 71 72 73 74 74 75 74 75 76 76 74 74 75 75 74 75 76 76 75 73 73
38 43 44 50 57 59 61 62 62 63 64 64 65 67 67 67 67 67 69 70 70 71 72 72 72 73 73 72 73 73 74 74 74 74 74 74 74 73 73 73 72 72 70 72 72 73 74 74 73 74 74 74 72 71 72 73 73 73 75 75 75 73 71
41 43 43 45 53 58 60 62 61 62 63 63 64 66 66 66 67 67 67 69 69 70 70 70 70 71 73 72 73 73 74 73 74 74 73 73 73 73 74 73 73 72 72 73 73 73 73 74 74 74 74 72 73 71 72 74 73 73 74 75 75 75 74
41 42 47 49 50 55 58 61 61 62 63 63 63 64 65 65 65 66 67 67 68 68 68 69 69 71 73 73 72 72 73 73 73 74 73 72 72 73 73 73 73 74 74 72 74 74 73 74 73 74 74 73 73 74 73 75 76 72 73 74 74 75 72
39 46 48 48 51 51 56 61 62 62 63 64 64 65 64 65 64 65 66 66 67 67 67 67 68 70 72 72 73 73 73 72 73 73 73 72 71 71 71 72 73 73 73 71 72 74 73 73 73 75 75 74 74 75 75 76 75 75 73 74 75 75 73
40 46 53 51 51 51 57 60 63 64 64 64 65 65 65 65 65 65 65 65 66 66 66 67 68 69 71 72 72 72 73 73 72 71 71 71 70 70 71 70 71 73 72 72 71 72 74 73 73 74 76 75 75 75 76 76 75 75 75 75 75 75 75
38 50 55 52 53 55 58 59 62 64 64 67 66 63 65 65 65 65 65 65 65 65 66 67 68 68 70 71 71 71 72 72 71 71 71 71 69 70 70 69 69 72 72 71 71 71 73 74 74 75 76 75 75 76 76 76 76 76 74 74 75 75 74
55 54 60 61 59 57 57 61 64 66 67 67 65 63 66 66 65 64 64 65 65 65 66 66 67 68 69 70 70 71 71 72 71 71 71 71 69 69 69 69 69 70 71 71 71 71 71 73 74 74 75 76 76 76 76 76 76 76 75 73 73 74 74
44 52 56 58 61 60 62 65 66 66 67 65 63 64 64 65 65 64 66 66 65 65 66 67 68 69 69 70 69 71 71 71 71 72 70 71 70 69 69 69 68 68 70 71 71 71 70 72 74 75 75 76 76 75 76 76 76 76 77 75 74 74 75
56 41 50 55 58 60 61 64 66 67 67 65 64 64 64 65 64 65 66 65 65 65 65 67 68 69 70 71 71 72 71 71 72 72 72 72 73 72 70 70 69 70 71 72 72 70 70 70 73 74 74 75 75 75 76 76 76 77 77 77 74 73 74
52 40 44 50 58 62 62 62 67 68 67 66 65 64 64 64 65 66 67 67 67 65 66 68 68 69 69 71 71 72 73 73 73 73 73 73 74 73 72 72 72 72 72 74 73 71 71 71 71 73 74 74 75 75 74 74 75 75 76 76 75 74 73
49 49 46 40 55 59 63 64 67 69 69 69 66 66 63 65 66 65 65 65 65 66 66 68 69 70 70 70 71 72 73 74 74 74 75 74 75 75 74 73 74 73 73 74 73 74 73 73 72 71 73 73 74 74 74 73 73 73 68 71 75 75 73
58 59 60 61 58 51 61 63 64 68 69 69 67 66 65 65 66 65 64 65 65 66 66 67 69 69 70 71 72 72 74 74 74 75 75 75 75 76 75 75 74 74 75 74 74 74 75 74 72 71 72 72 73 73 73 72 72 68 65 65 67 74 75
61 63 63 63 64 65 58 58 62 64 67 66 65 65 65 67 66 65 64 65 65 65 65 67 69 69 71 71 73 74 74 74 75 75 75 76 76 76 76 75 75 75 75 74 74 75 74 73 74 74 72 72 72 72 72 72 69 64 64 64 65 68 74
61 62 63 65 65 66 65 60 56 63 64 64 64 63 64 65 65 66 65 67 66 67 66 66 67 70 72 71 73 74 75 75 75 75 76 76 76 76 76 76 76 75 75 74 75 75 75 75 74 74 73 72 73 71 71 72 67 63 62 63 63 64 68
62 63 64 64 65 65 67 67 64 56 62 65 65 62 63 65 65 66 65 66 68 67 68 68 69 71 72 72 73 75 76 76 76 76 76 76 76 76 76 76 76 75 74 74 75 75 75 74 75 75 75 74 73 74 72 72 66 62 61 62 62 63 65
63 64 65 65 66 66 68 70 68 62 57 61 62 64 64 64 64 66 65 66 67 67 70 69 70 72 72 73 74 75 76 76 76 76 76 76 76 76 76 76 76 75 74 73 73 75 75 74 75 75 75 74 73 73 72 70 63 61 60 60 60 61 63
63 63 64 65 66 67 69 68 68 62 54 59 63 61 62 63 64 64 64 65 66 67 69 70 72 71 73 73 74 75 75 75 75 76 76 76 76 76 76 76 76 76 75 74 72 73 74 74 74 74 74 74 74 72 73 71 63 60 59 59 59 61 69
57 62 65 66 66 67 69 70 69 65 58 56 61 60 61 62 63 64 63 64 65 68 68 69 71 72 73 73 73 74 74 75 75 75 76 76 76 75 75 75 76 75 75 74 72 71 72 73 73 74 73 74 74 74 73 72 66 59 58 58 59 61 72
57 61 65 65 67 68 69 68 65 62 56 58 62 61 61 62 64 65 66 65 66 67 68 69 70 71 73 72 72 73 74 75 75 75 75 75 75 75 75 74 75 75 75 73 72 70 71 72 73 73 73 73 73 73 73 72 68 58 57 57 57 64 73
55 59 65 66 67 67 67 65 63 60 59 61 61 60 62 64 65 65 66 66 66 68 68 69 70 71 72 72 72 74 75 74 74 74 75 75 75 74 74 74 75 74 74 73 73 72 72 72 72 72 73 71 71 72 72 72 68 57 57 56 56 65 74
56 62 66 66 66 67 69 69 65 63 58 61 63 61 65 64 65 66 66 67 66 67 68 70 70 71 72 72 73 74 74 74 75 75 75 75 75 75 74 74 74 74 73 73 72 72 70 71 71 72 72 72 72 71 71 72 73 68 56 56 55 58 73
58 65 65 65 65 70 67 66 64 61 60 63 66 63 64 65 65 67 69 68 68 68 68 70 71 72 73 74 72 72 74 74 74 74 75 75 75 74 73 73 73 73 74 72 71 72 72 71 71 71 72 71 72 71 71 71 72 75 55 55 54 56 62
61 67 66 66 68 68 68 64 65 64 61 64 64 64 65 67 68 69 70 68 68 68 68 70 71 72 73 73 72 72 73 73 74 74 74 75 75 75 74 74 74 74 73 72 72 74 73 73 72 71 71 72 71 73 73 73 70 73 58 55 54 55 56
61 67 67 67 67 67 67 66 63 62 62 63 64 63 64 65 69 69 70 69 70 69 70 70 71 72 73 73 72 73 73 74 74 74 74 74 75 75 74 74 74 74 75 75 74 74 74 74 74 73 72 73 73 73 74 75 75 65 68 55 54 53 54
58 67 67 67 66 66 67 71 72 65 64 64 65 65 66 67 70 71 71 71 72 70 70 71 72 74 73 73 73 73 73 73 74 75 75 75 75 75 75 74 74 74 74 75 74 73 73 72 73 73 71 71 71 71 72 74 74 68 63 64 53 54 53
59 67 67 68 67 68 68 69 71 71 65 66 68 68 69 69 72 73 72 73 73 72 72 72 73 74 74 73 72 73 74 74 75 75 74 74 74 74 74 74 74 74 75 75 74 74 73 73 73 72 72 71 71 72 72 73 74 75 70 62 56 54 53
57 66 66 67 68 69 69 67 69 70 71 71 68 68 71 70 72 74 73 73 73 73 73 74 74 75 75 74 74 74 74 74 73 74 74 74 74 75 75 74 73 73 74 73 72 73 73 73 71 71 73 73 72 72 72 73 74 75 75 66 61 57 54
57 66 66 67 67 68 69 69 67 69 70 71 72 72 70 71 72 74 74 75 73 72 75 75 76 75 75 75 74 75 74 74 72 72 73 74 73 73 74 74 74 74 74 74 73 73 73 73 73 72 71 72 72 73 73 73 74 73 74 74 72 70 65
57 66 67 67 68 68 68 69 69 70 70 71 72 73 74 75 75 75 75 74 72 72 75 75 75 75 75 75 74 74 75 74 75 73 72 72 72 72 72 74 74 74 75 74 74 73 73 72 71 71 72 71 71 73 73 73 73 74 74 73 74 73 72
60 66 66 67 67 68 68 68 69 70 70 71 71 72 74 75 75 76 77 76 74 75 75 75 75 75 75 74 74 74 75 74 73 72 73 73 75 70 63 68 77 74 75 75 74 73 72 72 72 72 72 72 72 72 73 73 74 75 62 78 63 78 73
60 65 65 66 66 67 67 68 68 69 70 71 72 72 72 72 73 74 74 76 77 77 76 76 75 74 74 74 72 71 73 72 71 71 71 72 74 68 61 52 45 50 63 73 58 50 47 57 75 73 73 71 72 67 74 73 73 49 52 53 50 48 49
59 63 64 65 66 66 66 67 68 68 69 70 71 71 72 72 73 74 75 75 75 76 76 77 75 74 73 73 72 70 72 70 70 72 73 73 73 70 69 67 61 45 42 48 51 46 41 42 44 46 51 75 71 58 48 49 46 46 45 46 48 48 46
58 61 62 63 64 65 66 66 66 67 67 68 69 70 70 70 72 73 73 75 76 77 76 77 75 73 71 72 72 73 75 74 73 73 73 73 75 73 72 71 69 64 48 43 45 44 42 41 41 43 46 52 64 67 64 49 44 45 46 46 46 48 48